Location: Long Geng
(2.6167°N, 114.1333°E)
Time: 20:33:23
(UTC+00:00)

Cosmos 1825 Rocket - Pass Details

Date: 14 May 2021
Orbit: 604 x 630 km, 82.5° (Epoch: 16 June)

Event Time Altitude Azimuth Distance (km) Brightness Sun altitude
Exits shadow 21:00:43 - 185° (S) 2,012 5.9 -17.8°
Reaches altitude 10° 21:00:52 10° 185° (S) 1,953 5.9 -17.7°
Maximum altitude 21:05:11 87° 271° (W) 613 3.4 -16.7°
Drops below altitude 10° 21:09:32 10° 3° (N) 1,959 6.4 -15.7°
Sets 21:11:45 0° 3° (N) 2,865 7.3 -15.2°
